COSMOS 2254

导读

COSMOS 2254是独联体(CIS)于1993年6月24日发射的卫星,隶属于“宇宙(COSMOS/Kosmos)”系列卫星。该系列是苏联/俄罗斯规模最大、用途最广泛的卫星系列,涵盖军事侦察、导航、科学试验等多种任务。多数军用卫星被统一归入该系列以隐藏真实用途,不少卫星服役结束后已成为空间碎片,部分携带核装置的卫星曾引发过安全担忧。

基本信息
目录编号:
22689
目录名称:
COSMOS 2254
国际标识:
1993-038C
轨道中心:
EARTH
卫星名称:
COSMOS 2254
卫星全名:
--
卫星状态:
在轨 (已飞行12133 天)
发射日期:
1993-06-24 UTC
国别 :
俄罗斯(独联体) (CIS)
星等 :
--
该卫星已列入 空间交会检测服务 Space Conjunction Data Service (SCDS) ,当前飞行风险评估等级: 无高风险
轨道信息
数据来源 国际轨道数据
星历时间: 2026-09-12T10:54:33+0800
5小时前
查看轨道信息
半长轴: 7780.861km
偏心率: 0.001272
轨道倾角: 82.584°
近地点辐角 108.120°
升交点赤经 148.384°
平近点角 49.327°
近地点: 1392.826km
远地点: 1412.622km
周期: 113.842分钟
每日圈数: 12.64915
详细信息
使用方式:
暂无
2D轨道图
3D轨道图
轨道高度分析图
轨道倾角分析图
轨道综合分析图
查看轨道综合分析图
交会数据列表
事件ID 空间交会对象 最接近时刻(TCA) 交会距离 交会风险概率(CRP) 交会风险指数(CRI) 操作
CDM_260914-140802-268903-804523
2026-09-14T
14:08:59+0000
2.589 km
极远距离
1.293666E-6 低风险 0.37
与全量物体交会距离演化趋势
与全量物体交会风险概率演化趋势